Lebanon, NH

5:39 PM EDT on March 23, 2017 (GMT -0400)
Lebanon Municipal

Weather History for KLEB - November, 2013

Change the Weather History Date:

Sunday, November 24, 2013

  Actual Average Record
Temperature  
Mean Temperature 20 °F -  
Max Temperature 23 °F 41 °F 66 °F (1999)
Min Temperature 16 °F 25 °F 6 °F (1956)
Degree Days  
Heating Degree Days 46    
Moisture  
Dew Point 1 °F    
Average Humidity 46    
Maximum Humidity 60    
Minimum Humidity 34    
Precipitation  
Precipitation 0.00 in - - ()
Sea Level Pressure  
Sea Level Pressure 29.99 in    
Wind  
Wind Speed 14 mph (NW)    
Max Wind Speed 28 mph    
Max Gust Speed 47 mph    
Visibility 8 miles    
Events      
Averages and records for this station are not official NWS values.
T = Trace of Precipitation, MM = Missing Value Source: NWS Daily Summary

Daily Weather History Graph

Daily Weather History Graph

Search for Another Location

Airport or City:

Trip Planner

Search our weather history database for the weather conditions in past years. The results will help you decide how hot, cold, wet, or windy it might be!

Date:

Astronomy

Nov. 24, 2013 Rise Set
Actual Time 6:54 AM EST 4:16 PM EST
Civil Twilight 6:23 AM EST 4:48 PM EST
Nautical Twilight 5:47 AM EST 5:23 PM EST
Astronomical Twilight 5:13 AM EST 5:58 PM EST
Moon 10:46 PM EST (11/24) 11:35 AM EST (11/24)
Length of Visible Light 10h 25m
Length of Day
9h 21m
Waning Gibbous, 61% of the Moon is Illuminated
Nov 24
Waning Gibbous
Nov 25
Last Quarter
Dec 2
New
Dec 9
First Quarter
Dec 17
Full

Hourly Weather History & Observations

Time (EST) Temp. Windchill Dew Point Humidity Pressure Visibility Wind Dir Wind Speed Gust Speed Precip Events Conditions
12:53 AM 23.0 °F 11.7 °F 10.9 °F 60% 29.81 in 10.0 mi NW 11.5 mph 19.6 mph 0.00 in   Overcast
1:53 AM 21.0 °F 8.6 °F 8.1 °F 57% 29.84 in 10.0 mi NW 12.7 mph 23.0 mph N/A   Mostly Cloudy
2:53 AM 19.0 °F 11.1 °F 5.0 °F 54% 29.86 in 10.0 mi Variable 5.8 mph 24.2 mph N/A   Clear
3:53 AM 19.0 °F - 6.1 °F 57% 29.87 in 10.0 mi Calm Calm - N/A   Mostly Cloudy
4:53 AM 19.0 °F 5.6 °F 6.1 °F 57% 29.89 in 10.0 mi NW 13.8 mph 19.6 mph N/A   Overcast
5:53 AM 18.0 °F 4.8 °F 6.1 °F 60% 29.91 in 10.0 mi NW 12.7 mph - N/A   Mostly Cloudy
6:53 AM 16.0 °F 4.4 °F 1.9 °F 54% 29.93 in 10.0 mi NW 9.2 mph 19.6 mph N/A   Mostly Cloudy
7:53 AM 16.0 °F 2.3 °F 1.9 °F 54% 29.96 in 10.0 mi WNW 12.7 mph 20.7 mph N/A   Mostly Cloudy
8:53 AM 17.1 °F 2.5 °F 3.0 °F 54% 29.96 in 1.8 mi NW 15.0 mph 32.2 mph 0.00 in   Partly Cloudy
9:02 AM 17.1 °F 1.5 °F 3.0 °F 54% 29.92 in 10.0 mi NW 17.3 mph 25.3 mph 0.00 in   Clear
9:43 AM 19.0 °F 2.0 °F 3.9 °F 52% 29.92 in 10.0 mi NW 23.0 mph 36.8 mph 0.00 in   Partly Cloudy
9:53 AM 19.0 °F 4.0 °F 3.9 °F 52% 29.97 in 10.0 mi NW 17.3 mph 33.4 mph 0.00 in   Partly Cloudy
10:53 AM 19.9 °F 5.2 °F 1.9 °F 46% 29.98 in 10.0 mi NW 17.3 mph 31.1 mph 0.00 in   Scattered Clouds
11:53 AM 21.0 °F 5.4 °F 1.9 °F 44% 29.98 in 7.0 mi NW 20.7 mph 31.1 mph 0.00 in   Clear
11:58 AM 21.0 °F 3.9 °F 3.0 °F 46% 29.93 in 1.8 mi NW 25.3 mph 36.8 mph 0.00 in   Partly Cloudy
12:03 PM 19.9 °F 1.8 °F 3.0 °F 48% 29.93 in 0.8 mi NW 27.6 mph 40.3 mph 0.00 in   Unknown
12:09 PM 21.0 °F 5.4 °F 3.0 °F 46% 29.93 in 1.2 mi NW 20.7 mph 40.3 mph 0.00 in   Partly Cloudy
12:13 PM 21.0 °F 6.6 °F 1.9 °F 44% 29.94 in 3.0 mi NW 17.3 mph 34.5 mph 0.00 in   Partly Cloudy
12:36 PM 21.0 °F 5.0 °F 1.0 °F 42% 29.94 in 2.5 mi NW 21.9 mph 41.4 mph 0.00 in   Clear
12:45 PM 21.0 °F 5.0 °F 1.0 °F 42% 29.95 in 5.0 mi NW 21.9 mph 36.8 mph 0.00 in   Clear
12:53 PM 21.0 °F 5.7 °F 1.0 °F 42% 29.99 in 5.0 mi NW 19.6 mph 36.8 mph 0.00 in   Clear
1:53 PM 21.9 °F 6.5 °F -0.0 °F 38% 30.01 in 10.0 mi NW 20.7 mph 36.8 mph 0.00 in   Clear
2:53 PM 21.9 °F 6.2 °F -0.9 °F 37% 30.03 in 10.0 mi NW 21.9 mph 46.0 mph N/A   Clear
3:53 PM 21.0 °F 3.3 °F -2.0 °F 36% 30.06 in 10.0 mi WNW 27.6 mph 47.2 mph N/A   Clear
4:53 PM 21.0 °F 6.6 °F -2.0 °F 36% 30.09 in 10.0 mi NW 17.3 mph 36.8 mph N/A   Clear
5:53 PM 19.9 °F 4.3 °F -2.0 °F 38% 30.12 in 10.0 mi WNW 19.6 mph 34.5 mph N/A   Clear
6:53 PM 19.0 °F 5.0 °F -2.9 °F 38% 30.14 in 10.0 mi WNW 15.0 mph 28.8 mph N/A   Clear
7:53 PM 18.0 °F 2.2 °F -2.9 °F 40% 30.14 in 10.0 mi WNW 18.4 mph 29.9 mph N/A   Clear
8:53 PM 17.1 °F 4.3 °F -4.0 °F 39% 30.16 in 10.0 mi NW 11.5 mph 28.8 mph N/A   Clear
9:53 PM 16.0 °F 3.6 °F -5.1 °F 39% 30.19 in 10.0 mi NNW 10.4 mph - N/A   Clear
10:53 PM 16.0 °F 7.4 °F -7.1 °F 36% 30.22 in 10.0 mi NW 5.8 mph - N/A   Clear
11:53 PM 16.0 °F 10.4 °F -8.0 °F 34% 30.24 in 10.0 mi NW 3.5 mph - N/A   Clear